Flight Track Log - Related Links

Times and Time Zones

All times are in EST time to prevent confusion due to time zone crossing. See the N406TM flight status page for this flight to view local times or setup timezone preferences in your user account.

Time Position Orientation Groundspeed Altitude Reporting Facility
EST Latitude Longitude Course Direction KTS MPH feet Rate Location/Type
Tue 01:40:00 22.0011 -86.9551 355° North  Level FlightAware Approximate
Tue 01:41:00 22.1114 -86.9661 355° North  Level FlightAware Approximate
Tue 01:42:00 22.2218 -86.9747 356° North  Level FlightAware Approximate
Tue 01:43:00 22.3323 -86.9833 356° North  Level FlightAware Approximate
Tue 01:44:00 22.4430 -86.9833 North  Level FlightAware Approximate
Tue 01:45:00 22.5503 -87.0000 356° North  Level FlightAware Approximate
Tue 01:46:00 22.6609 -87.0074 356° North  Level FlightAware Approximate
Tue 01:47:00 22.7714 -87.0147 356° North  Level FlightAware Approximate
Tue 01:48:00 22.8818 -87.0235 356° North  Level FlightAware Approximate
Tue 01:49:00 22.9922 -87.0327 356° North  Level FlightAware Approximate
Tue 01:50:00 23.1028 -87.0390 357° North  Level FlightAware Approximate
Tue 01:51:00 23.2134 -87.0452 357° North  Level FlightAware Approximate
Tue 01:52:00 23.3237 -87.0539 351° North  Level FlightAware Approximate
Tue 01:53:00 23.4335 -87.0692 356° North  Level FlightAware Approximate
Tue 01:54:00 23.5439 -87.0775 356° North  Level FlightAware Approximate
Tue 01:55:00 23.6544 -87.0858 356° North  Level FlightAware Approximate
Tue 01:56:00 23.7649 -87.0941 356° North  Level FlightAware Approximate
Tue 01:57:00 23.8753 -87.1024 356° North  Level FlightAware Approximate
Tue 01:58:00 23.9858 -87.1108 356° North  Level FlightAware Approximate
Tue 01:59:00 24.0962 -87.1191 356° North  Level FlightAware Approximate
Tue 02:00:00 24.2067 -87.1275 356° North  Level FlightAware Approximate
Tue 02:01:00 24.3155 -87.1451 341° North  Level FlightAware Approximate
Tue 02:02:00 24.4205 -87.1838 341° North  Level FlightAware Approximate
Tue 02:03:00 24.5255 -87.2224 341° North  Level FlightAware Approximate
Tue 02:04:00 24.6304 -87.2612 341° North  Level FlightAware Approximate
Tue 02:05:00 24.7354 -87.3000 341° North  Level FlightAware Approximate
Tue 02:06:00 24.8403 -87.3388 341° North  Level FlightAware Approximate
Tue 02:07:00 24.9453 -87.3778 341° North  Level FlightAware Approximate
Tue 02:08:00 25.0502 -87.4168 341° North  Level FlightAware Approximate
Tue 02:09:00 25.1551 -87.4559 341° North  Level FlightAware Approximate
Tue 02:10:00 25.2600 -87.4951 341° North  Level FlightAware Approximate
Tue 02:11:00 25.3649 -87.5344 341° North  Level FlightAware Approximate
Tue 02:12:00 25.4698 -87.5738 341° North  Level FlightAware Approximate
Tue 02:13:00 25.5746 -87.6132 341° North  Level FlightAware Approximate
Tue 02:14:00 25.6795 -87.6526 341° North  Level FlightAware Approximate
Tue 02:15:00 25.7841 -87.6930 341° North  Level FlightAware Approximate
Tue 02:16:00 25.8885 -87.7338 341° North  Level FlightAware Approximate
Tue 02:17:00 25.9930 -87.7747 341° North  Level FlightAware Approximate
Tue 02:18:00 26.0974 -87.8157 341° North  Level FlightAware Approximate
Tue 02:19:00 26.2018 -87.8567 341° North  Level FlightAware Approximate
Tue 02:20:00 26.3062 -87.8978 341° North  Level FlightAware Approximate
Tue 02:21:00 26.4106 -87.9390 341° North  Level FlightAware Approximate
Tue 02:22:00 26.5150 -87.9803 341° North  Level FlightAware Approximate
Tue 02:23:00 26.6194 -88.0216 341° North  Level FlightAware Approximate
Tue 02:24:00 26.7237 -88.0630 340° North  Level FlightAware Approximate
Tue 02:25:00 26.8281 -88.1045 341° North  Level FlightAware Approximate
Tue 02:26:00 26.9326 -88.1454 341° North  Level FlightAware Approximate
Tue 02:26:06 26.4675 -87.9706 341° North 347 399 40,000  Level Houston Center
Tue 02:27:00 27.0372 -88.1864 341° North  Level FlightAware Approximate
Tue 02:27:06 26.5725 -88.0153 339° North 395 455 40,000  Level Houston Center
Tue 02:28:00 27.1417 -88.2275 341° North  Level FlightAware Approximate
Tue 02:28:06 26.6828 -88.0375 350° North 403 464 40,000  Level Houston Center
Tue 02:29:00 27.2462 -88.2687 341° North  Level FlightAware Approximate
Tue 02:29:06 26.7967 -88.0425 358° North 413 475 40,000  Level Houston Center
Tue 02:30:00 27.3508 -88.3096 341° North  Level FlightAware Approximate
Tue 02:30:06 26.9136 -88.0517 356° North 412 474 40,000  Level Houston Center
Tue 02:31:00 27.4554 -88.3504 341° North  Level FlightAware Approximate
Tue 02:31:06 27.0303 -88.0572 358° North 417 480 40,000  Level Houston Center
Tue 02:32:06 27.1442 -88.0656 356° North 418 481 40,000  Level Houston Center
Tue 02:34:07 27.3767 -88.0811 357° North 418 481 40,000  Level Houston Center
Tue 02:35:07 27.4944 -88.0897 356° North 421 484 40,000  Level Houston Center
Tue 02:36:07 27.6117 -88.0964 357° North 422 486 40,000  Level Houston Center
Tue 02:37:07 27.7292 -88.1042 357° North 422 486 40,000 -50 Level Houston Center
Tue 02:38:07 27.8483 -88.1133 356° North 422 486 39,900  Descending Houston Center
Tue 02:39:07 27.9672 -88.1217 356° North 426 490 40,000 50 Climbing Houston Center
Tue 02:40:07 28.0858 -88.1289 357° North 427 491 40,000  Level Houston Center
Tue 02:41:07 28.2028 -88.1364 357° North 423 487 40,000  Level Houston Center
Tue 02:42:08 28.3217 -88.1453 356° North 426 490 40,000  Level Houston Center
Tue 02:43:08 28.4386 -88.1553 356° North 424 488 40,000  Level Houston Center
Tue 02:44:08 28.5569 -88.1622 357° North 424 488 40,000  Level Houston Center
Tue 02:45:08 28.6742 -88.1714 356° North 424 488 40,000  Level Houston Center
Tue 02:46:08 28.7925 -88.1792 357° North 424 488 40,000  Level Houston Center
Tue 02:47:08 28.9097 -88.1861 357° North 423 487 40,000  Level Houston Center
Tue 02:48:08 29.0264 -88.1939 357° North 422 486 40,000  Level Houston Center
Tue 02:49:09 29.1658 -88.2022 357° North 419 482 40,000  Level Houston Center
Tue 02:50:09 29.2819 -88.2111 356° North 419 482 40,000  Level Houston Center
Tue 02:51:09 29.3847 -88.2178 357° North 418 481 40,000  Level Houston Center
Tue 02:52:09 29.4992 -88.2258 356° North 413 475 40,000  Level Houston Center
Tue 02:53:09 29.6144 -88.2331 357° North 414 476 40,000  Level Houston Center
Tue 02:54:09 29.7294 -88.2422 356° North 414 476 40,000 150 Level Houston Center
Tue 02:55:09 29.8464 -88.2378 North 421 484 40,300 400 Climbing Houston Center
Tue 02:56:09 29.9647 -88.2114 11° North 432 497 40,800 347 Climbing Houston Center
Tue 02:57:10 30.0808 -88.1839 12° North 429 494 41,000 99 Climbing Houston Center
Tue 02:58:10 30.2006 -88.1558 11° North 437 503 41,000  Level Houston Center
Tue 02:59:10 30.3228 -88.1278 11° North 444 511 41,000  Level Houston Center
Tue 03:00:10 30.4456 -88.0989 11° North 449 517 41,000  Level Houston Center
Tue 03:01:10 30.5681 -88.0700 11° North 451 519 41,000  Level Houston Center
Tue 03:02:10 30.7033 -88.0389 11° North 452 520 41,000  Level Houston Center
Tue 03:03:11 30.8267 -88.0094 12° North 453 521 41,000  Level Houston Center
Tue 03:04:11 30.9486 -87.9806 11° North 450 518 41,000  Level Houston Center
Tue 03:05:11 31.0717 -87.9519 11° North 451 519 41,000  Level Houston Center
Tue 03:06:11 31.1944 -87.9219 12° North 453 521 41,000  Level Houston Center
Tue 03:07:11 31.3217 -87.8922 11° North 447 514 41,000  Level Houston Center
Tue 03:08:12 31.4428 -87.8622 12° North 447 514 41,000  Level Houston Center
Tue 03:09:12 31.5633 -87.8333 12° North 445 512 41,000  Level Houston Center
Tue 03:09:51 31.6367 -87.8194 North 447 514 41,000  Level Atlanta Center
Tue 03:10:51 31.7542 -87.7925 11° North 442 509 41,000  Level Atlanta Center
Tue 03:11:51 31.8761 -87.7636 11° North 436 502 41,000  Level Atlanta Center
Tue 03:12:51 31.9919 -87.7364 11° North 429 494 41,000  Level Atlanta Center
Tue 03:13:51 32.1136 -87.7072 11° North 429 494 41,000  Level Atlanta Center
Tue 03:14:51 32.2294 -87.6775 12° North 429 494 41,000  Level Atlanta Center
Tue 03:15:51 32.3492 -87.6506 11° North 429 494 41,000  Level Atlanta Center
Tue 03:16:51 32.4669 -87.6208 12° North 429 494 41,000  Level Atlanta Center
Tue 03:17:51 32.5806 -87.5883 14° North 429 494 41,000  Level Atlanta Center
Tue 03:18:51 32.7025 -87.5589 11° North 429 494 41,000  Level Atlanta Center
Tue 03:19:51 32.8181 -87.5314 11° North 434 499 41,000  Level Atlanta Center
Tue 03:20:51 32.9400 -87.4967 13° North 429 494 41,000  Level Atlanta Center
Tue 03:21:51 33.0642 -87.4667 11° North 429 494 41,000  Level Atlanta Center
Tue 03:22:51 33.1817 -87.4367 12° North 429 494 41,000  Level Atlanta Center
Tue 03:23:51 33.3014 -87.4092 11° North 429 494 41,000  Level Atlanta Center
Tue 03:24:51 33.4192 -87.3789 12° North 429 494 41,000  Level Atlanta Center
Tue 03:25:51 33.5389 -87.3486 12° North 429 494 41,000  Level Atlanta Center
Tue 03:26:51 33.6547 -87.3181 12° North 429 494 41,000  Level Atlanta Center
Tue 03:28:42 33.8675 -87.2664 11° North 434 499 41,000  Level Memphis Center
Tue 03:29:42 33.9839 -87.2361 12° North 432 497 41,000  Level Memphis Center
Tue 03:30:42 34.1011 -87.2072 12° North 432 497 41,000  Level Memphis Center
Tue 03:31:43 34.2181 -87.1775 12° North 432 497 41,000  Level Memphis Center
Tue 03:32:43 34.3339 -87.1467 12° North 432 497 41,000  Level Memphis Center
Tue 03:33:43 34.4503 -87.1178 12° North 432 497 41,000 -250 Level Memphis Center
Tue 03:34:43 34.5672 -87.0881 12° North 432 497 40,500 -1,750 Descending Memphis Center
Tue 03:35:43 34.6861 -87.0567 12° North 437 503 37,500 -3,000 Descending Memphis Center
Tue 03:36:43 34.8028 -87.0267 12° North 435 501 34,500 -2,975 Descending Memphis Center
Tue 03:37:44 34.9172 -86.9972 12° North 423 487 31,500 -3,025 Descending Memphis Center
Tue 03:38:44 35.0356 -86.9656 12° North 431 496 28,400 -3,050 Descending Memphis Center
Tue 03:39:44 35.1536 -86.9356 12° North 433 498 25,400 -3,000 Descending Memphis Center
Tue 03:40:44 35.2678 -86.9056 12° North 425 489 22,400 -3,200 Descending Memphis Center
Tue 03:41:44 35.3933 -86.8725 12° North 404 465 19,000 -3,000 Descending Memphis Center
Tue 03:42:44 35.4983 -86.8444 12° North 390 449 16,400 -2,550 Descending Memphis Center
Tue 03:43:44 35.5928 -86.8200 12° North 357 411 13,900 -2,628 Descending Memphis Center
Tue 03:44:45 35.6811 -86.8014 10° North 328 377 11,100 -2,727 Descending Memphis Center
Tue 03:45:45 35.7567 -86.7842 10° North 282 325 8,400 -2,550 Descending Memphis Center
Tue 03:46:45 35.8275 -86.7678 11° North 262 302 6,000 -2,200 Descending Memphis Center
Tue 03:47:45 35.8872 -86.7547 10° North 261 300 4,000 -1,500 Descending Memphis Center
Tue 03:48:45 35.9475 -86.7450 North 212 244 3,000 -850 Descending Memphis Center
Tue 03:49:45 35.9964 -86.7311 13° North 186 214 2,300 -595 Descending Memphis Center
Tue 03:50:46 36.0322 -86.7156 19° North 153 176 1,800 -397 Descending Memphis Center
Tue 03:51:46 36.0692 -86.7022 16° North 134 154 1,500 -500 Descending Memphis Center
Tue 03:52:46 36.0961 -86.6897 21° North 124 143 800 -400 Descending Memphis Center
Tue 03:53:46 36.1264 -86.6778 18° North 123 142 700 -100 Descending Memphis Center
Tue 03:55:00 36.1245 -86.6782 North  Level Estimated

Login

Don't have an account? Register now (free) for customized features, flight alerts, and more!